Nashua, NH

8:46 AM EDT on October 20, 2017 (GMT -0400)
Boire

Weather History for KASH - February, 2014

Change the Weather History Date:

Saturday, February 15, 2014

  Actual Average Record
Temperature  
Mean Temperature 25 °F -  
Max Temperature 31 °F 35 °F 57 °F (1972)
Min Temperature 19 °F 12 °F -13 °F (2003)
Degree Days  
Heating Degree Days 40    
Moisture  
Dew Point 25 °F    
Average Humidity 89    
Maximum Humidity 100    
Minimum Humidity 72    
Precipitation  
Precipitation 0.00 in - - ()
Sea Level Pressure  
Sea Level Pressure 30.18 in    
Wind  
Wind Speed 4 mph (North)    
Max Wind Speed 17 mph    
Max Gust Speed 22 mph    
Visibility 4 miles    
Events Snow    
Averages and records for this station are not official NWS values.
T = Trace of Precipitation, MM = Missing Value Source: NWS Daily Summary

Daily Weather History Graph

Daily Weather History Graph

Search for Another Location

Airport or City:

Trip Planner

Search our weather history database for the weather conditions in past years. The results will help you decide how hot, cold, wet, or windy it might be!

Date:

Astronomy

Feb. 15, 2014 Rise Set
Actual Time 6:43 AM EST 5:17 PM EST
Civil Twilight 6:14 AM EST 5:46 PM EST
Nautical Twilight 5:41 AM EST 6:19 PM EST
Astronomical Twilight 5:08 AM EST 6:52 PM EST
Moon 6:17 PM EST (2/15) 6:38 AM EST (2/15)
Length of Visible Light 11h 32m
Length of Day
10h 34m
Full, 100% of the Moon is Illuminated
Feb 15
Full
Feb 22
Last Quarter
Mar 1
New
Mar 8
First Quarter
Mar 16
Full

Hourly Weather History & Observations

Time (EST) Temp. Windchill Dew Point Humidity Pressure Visibility Wind Dir Wind Speed Gust Speed Precip Events Conditions
12:51 AM 27.1 °F - 19.0 °F 72% 30.51 in 10.0 mi Calm Calm - N/A   Clear
1:51 AM 25.2 °F - 19.0 °F 78% 30.51 in 10.0 mi Calm Calm - N/A   Clear
2:51 AM 19.0 °F - 17.1 °F 92% 30.55 in 8.0 mi Calm Calm - N/A   Clear
3:51 AM 21.0 °F - 19.0 °F 92% 30.55 in 8.0 mi Calm Calm - N/A   Clear
4:51 AM 21.0 °F - 19.0 °F 92% 30.56 in 8.0 mi Calm Calm - N/A   Clear
5:51 AM 20.1 °F - 18.1 °F 92% 30.59 in 7.0 mi Calm Calm - N/A   Clear
6:51 AM 19.0 °F - 17.1 °F 92% 30.59 in 5.0 mi Calm Calm - N/A   Clear
7:51 AM 22.1 °F - 20.1 °F 92% 30.59 in 5.0 mi Calm Calm - N/A   Clear
8:51 AM 24.1 °F - 22.1 °F 92% 30.61 in 7.0 mi Calm Calm - N/A   Clear
9:51 AM 27.1 °F - 22.1 °F 81% 30.60 in 8.0 mi Calm Calm - N/A   Clear
10:51 AM 29.1 °F - 23.0 °F 78% 30.62 in 9.0 mi Calm Calm - N/A   Partly Cloudy
11:51 AM 31.1 °F - 23.0 °F 72% 30.58 in 10.0 mi Calm Calm - N/A   Clear
12:21 PM 30.2 °F - 24.8 °F 80% 29.81 in 2.0 mi Calm Calm - 0.00 in Snow Light Snow
12:33 PM 30.2 °F - 24.8 °F 80% 29.79 in 1.8 mi Calm Calm - 0.00 in Snow Light Snow
12:51 PM 30.0 °F 25.2 °F 26.1 °F 85% 30.55 in 2.0 mi North 4.6 mph - 0.00 in Snow Light Snow
1:12 PM 30.2 °F 25.4 °F 26.6 °F 86% 29.77 in 1.8 mi North 4.6 mph - 0.00 in Snow Light Snow
1:33 PM 28.4 °F 22.2 °F 26.6 °F 93% 29.77 in 1.2 mi North 5.8 mph - 0.00 in Snow Light Snow
1:51 PM 29.1 °F 23.0 °F 27.1 °F 92% 30.52 in 1.2 mi North 5.8 mph - 0.00 in Snow Light Snow
1:54 PM 28.4 °F 23.3 °F 26.6 °F 93% 29.76 in 1.0 mi North 4.6 mph - 0.00 in Snow Light Snow
2:51 PM 29.1 °F 24.1 °F 27.1 °F 92% 30.50 in 1.0 mi NNE 4.6 mph - 0.00 in Snow Light Snow
3:51 PM 29.1 °F 23.0 °F 27.1 °F 92% 30.48 in 2.0 mi NNE 5.8 mph - 0.00 in Snow Light Snow
4:51 PM 29.1 °F 23.0 °F 27.1 °F 92% 30.46 in 0.8 mi North 5.8 mph - 0.00 in Snow Light Snow
5:51 PM 29.1 °F 22.1 °F 28.0 °F 96% 30.45 in 0.8 mi North 6.9 mph - 0.00 in Snow Light Snow
6:51 PM 29.1 °F 20.6 °F 28.0 °F 96% 30.41 in 1.8 mi North 9.2 mph - 0.00 in Snow Light Snow
6:53 PM 28.4 °F 19.7 °F 28.4 °F 100% 29.64 in 2.0 mi North 9.2 mph - 0.00 in Snow Light Snow
7:00 PM 28.4 °F 19.7 °F 28.4 °F 100% 29.64 in 1.8 mi North 9.2 mph - 0.00 in Snow Light Snow
7:51 PM 29.1 °F 20.0 °F 27.1 °F 92% 30.35 in 2.0 mi North 10.4 mph - 0.00 in Snow Light Snow
8:51 PM 29.1 °F 19.4 °F 27.1 °F 92% 30.33 in 1.5 mi NNW 11.5 mph - 0.00 in Snow Light Snow
9:02 PM 28.4 °F 17.0 °F 26.6 °F 93% 29.56 in 1.2 mi NNW 15.0 mph 21.9 mph 0.00 in Snow Light Snow
9:09 PM 28.4 °F 17.5 °F 26.6 °F 93% 29.55 in 1.5 mi NNW 13.8 mph - 0.00 in Snow Light Snow
9:27 PM 28.4 °F 17.0 °F 26.6 °F 93% 29.54 in 1.8 mi NNW 15.0 mph - 0.00 in Snow Light Snow
9:35 PM 28.4 °F 17.0 °F 26.6 °F 93% 29.54 in 2.0 mi NNW 15.0 mph - 0.00 in Snow Light Snow
9:51 PM 29.1 °F 18.9 °F 27.1 °F 92% 30.30 in 3.0 mi NNW 12.7 mph - 0.00 in Snow Light Snow
9:58 PM 28.4 °F 18.5 °F 26.6 °F 93% 29.54 in 3.0 mi North 11.5 mph - 0.00 in Snow Light Snow
10:22 PM 28.4 °F 19.1 °F 26.6 °F 93% 29.54 in 5.0 mi NNW 10.4 mph - 0.00 in Snow Light Snow
10:33 PM 28.4 °F 19.1 °F 26.6 °F 93% 29.53 in 5.0 mi NNW 10.4 mph 18.4 mph 0.00 in Snow Light Snow
10:51 PM 29.1 °F 19.4 °F 26.1 °F 88% 30.27 in 7.0 mi North 11.5 mph - 0.00 in Snow Light Snow
11:51 PM 30.0 °F 18.3 °F 25.2 °F 82% 30.27 in 8.0 mi NNW 17.3 mph - 0.00 in Snow Light Snow